This is the latest recevied weather packets stored in our database for station/object CA3PBK-13. If no packets are shown the sender has not sent any weather packets the latest 1 day(s).
| Time | Temp. | Humidity | Pressure | Rain* | Wind** | Luminosity | Snow |
|---|---|---|---|---|---|---|---|
| 1777995124 | 25° C | 99% | 926.5 hPa | 0 mm | 0 m/s | - | - |
| 1777995004 | 24.44° C | 99% | 926.7 hPa | 0 mm | 0 m/s | - | - |
| 1777994884 | 25° C | 99% | 926.7 hPa | 0 mm | 0 m/s | - | - |
| 1777994773 | 25° C | 99% | 926.7 hPa | 0 mm | 0 m/s | - | - |
| 1777994644 | 24.44° C | 99% | 926.7 hPa | 0 mm | 0 m/s | - | - |
| 1777994524 | 24.44° C | 99% | 926.7 hPa | 0 mm | 0 m/s | - | - |
| 1777994404 | 23.89° C | 99% | 926.8 hPa | 0 mm | 0 m/s | - | - |
| 1777994284 | 23.89° C | 99% | 926.7 hPa | 0 mm | 0 m/s | - | - |
| 1777994165 | 23.33° C | 99% | 926.7 hPa | 0 mm | 0 m/s | - | - |
| 1777994044 | 23.33° C | 99% | 926.7 hPa | 0 mm | 0 m/s | - | - |
| 1777993924 | 23.33° C | 99% | 926.8 hPa | 0 mm | 0 m/s | - | - |
| 1777993804 | 23.33° C | 99% | 926.9 hPa | 0 mm | 0 m/s | - | - |
| 1777993684 | 23.33° C | 99% | 926.9 hPa | 0 mm | 0 m/s | - | - |
| 1777993565 | 23.33° C | 99% | 926.9 hPa | 0 mm | 0 m/s | - | - |
| 1777993444 | 23.89° C | 99% | 927 hPa | 0 mm | 0 m/s | - | - |
| 1777993324 | 23.89° C | 99% | 927 hPa | 0 mm | 0 m/s | - | - |
| 1777993204 | 23.33° C | 99% | 927 hPa | 0 mm | 0 m/s | - | - |
| 1777993084 | 23.33° C | 99% | 927 hPa | 0 mm | 0 m/s | - | - |
| 1777992965 | 23.33° C | 99% | 927.1 hPa | 0 mm | 0 m/s | - | - |
| 1777992844 | 23.33° C | 99% | 927 hPa | 0 mm | 0 m/s | - | - |
| 1777992724 | 23.33° C | 99% | 927 hPa | 0 mm | 0 m/s | - | - |
| 1777992604 | 22.78° C | 99% | 927.1 hPa | 0 mm | 0 m/s | - | - |
| 1777992484 | 23.33° C | 99% | 927.1 hPa | 0 mm | 0 m/s | - | - |
| 1777992365 | 22.78° C | 99% | 927.1 hPa | 0 mm | 0 m/s | - | - |
| 1777992244 | 22.22° C | 99% | 927.1 hPa | 0 mm | 0 m/s | - | - |
* Rain latest hour (hover to see other rain measurements)
** Current wind speed in m/s (hover to see current wind gust speed)